Weather History for EIDW - April, 2014

Change the Weather History Date:

Monday, April 28, 2014

  Actual Average Record
Temperature  
Mean Temperature 50 °F -  
Max Temperature 57 °F 58 °F 64 °F (1999)
Min Temperature 44 °F 44 °F 33 °F (2011)
Degree Days  
Heating Degree Days 14    
Moisture  
Dew Point 47 °F    
Average Humidity 84    
Maximum Humidity 100    
Minimum Humidity 64    
Precipitation  
Precipitation 0.00 in 0.07 in - ()
Sea Level Pressure  
Sea Level Pressure 29.90 in    
Wind  
Wind Speed 6 mph ()    
Max Wind Speed 9 mph    
Max Gust Speed -    
Visibility 9.4 miles    
Events Rain    
Averages and records for this station are not official NWS values.
T = Trace of Precipitation, MM = Missing Value Source: Averaged Metar Reports

Daily Weather History Graph

Daily Weather History Graph

Search for Another Location

Airport or City:

Trip Planner

Search our weather history database for the weather conditions in past years. The results will help you decide how hot, cold, wet, or windy it might be!

Date:

Astronomy

Apr. 28, 2014 Rise Set
Actual Time 5:57 AM IST 8:49 PM IST
Civil Twilight 5:17 AM IST 9:29 PM IST
Nautical Twilight 4:25 AM IST 10:21 PM IST
Astronomical Twilight 3:19 AM IST 11:29 PM IST
Moon 5:37 AM IST (4/28) 8:06 PM IST (4/28)
Length of Visible Light 16h 11m
Length of Day
14h 52m
Waning Crescent, 1% of the Moon is Illuminated
Apr 28
Waning Crescent
Apr 29
New
May 7
First Quarter
May 14
Full
May 21
Last Quarter

Hourly Weather History & Observations

Time (IST) Temp. Windchill Dew Point Humidity Pressure Visibility Wind Dir Wind Speed Gust Speed Precip Events Conditions
12:00 AM 47 °F - 46 °F 94% 29.91 in 16 mi NW 6.7 mph - -   Mostly Cloudy
12:00 AM 46.4 °F 43.5 °F 46.4 °F 100% 29.89 in 6.2 mi NW 5.8 mph - N/A   Mostly Cloudy
12:30 AM 48.2 °F - 46.4 °F 93% 29.89 in 6.2 mi NNW 4.6 mph - N/A   Mostly Cloudy
1:00 AM 46 °F - 44 °F 92% 29.91 in 16 mi WNW 4.5 mph - -   Mostly Cloudy
1:00 AM 46.4 °F 44.3 °F 44.6 °F 93% 29.89 in 6.2 mi WNW 4.6 mph - N/A   Mostly Cloudy
1:30 AM 46.4 °F 43.5 °F 46.4 °F 100% 29.89 in 6.2 mi WNW 5.8 mph - N/A   Mostly Cloudy
2:00 AM 46 °F - 46 °F 97% 29.90 in 16 mi WNW 6.7 mph - -   Mostly Cloudy
2:00 AM 46.4 °F 43.5 °F 44.6 °F 93% 29.89 in 6.2 mi WNW 5.8 mph - N/A   Mostly Cloudy
2:30 AM 48.2 °F - 46.4 °F 93% 29.89 in 6.2 mi WNW 5.8 mph - N/A   Mostly Cloudy
3:00 AM 48 °F - 46 °F 91% 29.89 in 19 mi WNW 6.7 mph - -   Mostly Cloudy
3:00 AM 48.2 °F - 46.4 °F 93% 29.89 in 6.2 mi WNW 5.8 mph - N/A   Mostly Cloudy
3:30 AM 48.2 °F - 46.4 °F 93% 29.89 in 6.2 mi WNW 6.9 mph - N/A   Mostly Cloudy
4:00 AM 49 °F - 47 °F 88% 29.89 in 19 mi NW 6.7 mph - -   Mostly Cloudy
4:00 AM 48.2 °F - 46.4 °F 93% 29.89 in 6.2 mi WNW 6.9 mph - N/A   Mostly Cloudy
4:30 AM 48.2 °F - 46.4 °F 93% 29.89 in 6.2 mi WNW 5.8 mph - N/A Rain Light Rain
5:00 AM 49 °F - 47 °F 90% 29.89 in 16 mi NW 6.7 mph - - Rain Light Rain
5:30 AM 48.2 °F - 46.4 °F 93% 29.89 in 6.2 mi NNW 8.1 mph - N/A   Mostly Cloudy
6:00 AM 48 °F - 47 °F 95% 29.90 in 9 mi NNW 4.5 mph - - Rain Light Rain
6:00 AM 48.2 °F - 46.4 °F 93% 29.89 in 6.2 mi NNW 4.6 mph - N/A   Mostly Cloudy
6:30 AM 48.2 °F - 46.4 °F 93% 29.89 in 5.6 mi NNW 6.9 mph - N/A Rain Light Rain
7:00 AM 49 °F - 48 °F 93% 29.90 in 6 mi West 2.2 mph - - Rain Light Rain
7:00 AM 48.2 °F - 48.2 °F 100% 29.89 in 5.6 mi Variable 3.5 mph - N/A Rain Light Rain
7:30 AM 50.0 °F - 48.2 °F 94% 29.89 in 6.2 mi West 4.6 mph - N/A Rain Light Rain
8:00 AM 50 °F - 48 °F 92% 29.89 in 9 mi West 6.7 mph - - Rain Light Rain
8:00 AM 50.0 °F - 48.2 °F 94% 29.89 in 6.2 mi West 6.9 mph - N/A Rain Light Rain
8:30 AM 51.8 °F - 48.2 °F 88% 29.89 in 6.2 mi West 9.2 mph - N/A   Mostly Cloudy
9:00 AM 52 °F - 49 °F 84% 29.89 in 12 mi West 6.7 mph - - Rain Light Rain
9:00 AM 51.8 °F - 48.2 °F 88% 29.89 in 6.2 mi West 8.1 mph - N/A   Mostly Cloudy
9:30 AM 51.8 °F - 50.0 °F 94% 29.89 in 6.2 mi WSW 8.1 mph - N/A   Mostly Cloudy
10:00 AM 53 °F - 50 °F 86% 29.90 in 12 mi West 8.9 mph - -   Partly Cloudy
10:00 AM 53.6 °F - 50.0 °F 88% 29.89 in 6.2 mi West 8.1 mph - N/A   Mostly Cloudy
10:30 AM 55.4 °F - 48.2 °F 77% 29.89 in 6.2 mi WNW 5.8 mph - N/A   Mostly Cloudy
11:00 AM 55 °F - 48 °F 70% 29.90 in 16 mi NW 6.7 mph - -   Mostly Cloudy
11:00 AM 55.4 °F - 48.2 °F 77% 29.89 in 6.2 mi NW 5.8 mph - N/A   Mostly Cloudy
11:30 AM 55.4 °F - 50.0 °F 82% 29.89 in 6.2 mi NW 6.9 mph - N/A   Mostly Cloudy
12:00 PM 56 °F - 48 °F 66% 29.90 in 16 mi NW 8.9 mph - -   Mostly Cloudy
12:00 PM 55.4 °F - 48.2 °F 77% 29.89 in 6.2 mi NW 6.9 mph - N/A   Mostly Cloudy
12:30 PM 57.2 °F - 46.4 °F 67% 29.89 in 6.2 mi NNW 5.8 mph - N/A   Mostly Cloudy
1:00 PM 56 °F - 47 °F 64% 29.90 in 16 mi NNW 6.7 mph - -   Partly Cloudy
1:00 PM 57.2 °F - 48.2 °F 72% 29.89 in 6.2 mi NNW 6.9 mph - N/A   Mostly Cloudy
1:30 PM 55.4 °F - 46.4 °F 72% 29.89 in 6.2 mi NW 4.6 mph - N/A   Mostly Cloudy
2:00 PM 55 °F - 47 °F 66% 29.91 in 16 mi ESE 8.9 mph - -   Overcast
2:00 PM 55.4 °F - 48.2 °F 77% 29.89 in 6.2 mi ESE 9.2 mph - N/A   Mostly Cloudy
2:30 PM 53.6 °F - 46.4 °F 77% 29.89 in 6.2 mi ESE 6.9 mph - N/A   Mostly Cloudy
3:00 PM 54 °F - 48 °F 72% 29.91 in 16 mi ESE 6.7 mph - -   Overcast
3:00 PM 53.6 °F - 48.2 °F 82% 29.89 in 6.2 mi ESE 5.8 mph - N/A   Mostly Cloudy
3:30 PM 53.6 °F - 48.2 °F 82% 29.89 in 6.2 mi ESE 5.8 mph - N/A   Mostly Cloudy
4:00 PM 55 °F - 49 °F 72% 29.91 in 16 mi ESE 6.7 mph - -   Overcast
4:00 PM 55.4 °F - 48.2 °F 77% 29.89 in 6.2 mi ESE 6.9 mph - N/A   Mostly Cloudy
4:30 PM 55.4 °F - 48.2 °F 77% 29.89 in 6.2 mi SE 6.9 mph - N/A   Mostly Cloudy
5:00 PM 55 °F - 48 °F 71% 29.90 in 16 mi ESE 8.9 mph - -   Overcast
5:00 PM 55.4 °F - 48.2 °F 77% 29.89 in 6.2 mi ESE 9.2 mph - N/A   Mostly Cloudy
5:30 PM 55.4 °F - 46.4 °F 72% 29.89 in 6.2 mi SE 9.2 mph - N/A   Mostly Cloudy
6:00 PM 56 °F - 47 °F 64% 29.90 in 17 mi SE 6.7 mph - -   Mostly Cloudy
6:00 PM 55.4 °F - 48.2 °F 77% 29.89 in 6.2 mi SE 6.9 mph - N/A   Mostly Cloudy
6:30 PM 55.4 °F - 48.2 °F 77% 29.89 in 6.2 mi SE 5.8 mph - N/A   Mostly Cloudy
7:00 PM 56 °F - 47 °F 64% 29.90 in 17 mi ESE 8.9 mph - -   Mostly Cloudy
7:30 PM 55.4 °F - 46.4 °F 72% 29.89 in 6.2 mi SE 9.2 mph - N/A   Mostly Cloudy
8:00 PM 54 °F - 47 °F 69% 29.90 in 19 mi ESE 6.7 mph - -   Mostly Cloudy
8:00 PM 53.6 °F - 46.4 °F 77% 29.89 in 6.2 mi ESE 5.8 mph - N/A   Mostly Cloudy
8:30 PM 51.8 °F - 46.4 °F 82% 29.89 in 6.2 mi ESE 5.8 mph - N/A   Mostly Cloudy
9:00 PM 48 °F - 44 °F 81% 29.91 in 19 mi East 6.7 mph - -   Scattered Clouds
9:00 PM 48.2 °F - 44.6 °F 87% 29.89 in 6.2 mi East 5.8 mph - N/A   Mostly Cloudy
9:30 PM 46.4 °F 42.9 °F 44.6 °F 93% 29.89 in 6.2 mi East 6.9 mph - N/A   Mostly Cloudy
10:00 PM 49 °F - 47 °F 89% 29.93 in 19 mi ESE 6.7 mph - -   Partly Cloudy
10:00 PM 48.2 °F - 46.4 °F 93% 29.92 in 6.2 mi East 6.9 mph - N/A   Mostly Cloudy
10:30 PM 50.0 °F - 46.4 °F 87% 29.92 in 6.2 mi ESE 9.2 mph - N/A   Mostly Cloudy
11:00 PM 50 °F - 47 °F 84% 29.93 in 19 mi ESE 8.9 mph - -   Mostly Cloudy
11:00 PM 50.0 °F - 46.4 °F 87% 29.92 in 6.2 mi ESE 9.2 mph - N/A   Mostly Cloudy
11:30 PM 50.0 °F - 46.4 °F 87% 29.92 in 6.2 mi ESE 8.1 mph - N/A   Mostly Cloudy